Location: Copenhagen
(55.6670°N, 12.5830°E)
Time: 04:55:55
(UTC+02:00)

ACS3 Solar Sail - Pass Details

Date: 26 September 2024
Orbit: 959 x 1034 km, 97.5° (Epoch: 14 October)

Event Time Altitude Azimuth Distance (km) Brightness Sun altitude
Exits shadow 20:50:35 10° 160° (SSE) 2,870 3.9 -16.5°
Reaches altitude 10° 20:50:41 10° 160° (SSE) 2,829 3.8 -16.5°
Maximum altitude 20:57:07 84° 73° (ENE) 1,047 1.9 -17.3°
Drops below altitude 10° 21:03:34 10° 347° (NNW) 2,838 4.7 -18.2°
Enters shadow 22:11:53 -48° 179° (S) 10,685 7.1 -26.2°
